Find Starlink 31164

NORAD ID: 58733 Int'l Des: 2024-005 Owner: SPXS Country: US Constellation: starlink operational
LEOCIRCULAR

Live Position

Loading 3D Globe...

About Starlink 31164

Description loading...

Upcoming Passes

Passes for default location (London). Set your location on the main map for personalized predictions.

Altitude History

Loading altitude history...

Two-Line Element Set

1 58733U 24005F 26122.41053398 .00003664 00000-0 14256-3 0 9993
2 58733 43.0036 276.0178 0001644 262.0821 97.9844 15.27589640128651
Epoch: May 2, 2026 • Age: 7 hours

Current Status

Altitude 495.2 km
Velocity 7.62 km/s
Sub-Earth Point -43.03°S, 58.85°E
Launch Date Jan 7, 2024
Age 2.3 years
Type internet

Technical Details

Classification Payload
Mass 730.00 kg
Dry Mass 700.00 kg
Total Mass 730.00 kg
Length 0.30 m
Diameter 4.10 m
Span 29.00 m
Shape Box + pan
Manufacturer SPXS
Bus Type Starlink V2M
Phase Status In Orbit
Owner/State SPXS/US

Most Searched